Regional Weather Roundup
Issued by NWS Kansas City/Pleasant Hill, MO

Home | Current Version | Previous Version | Graphics & Text | Print | Product List | Glossary Off
Versions: 1 2 3 4 5 6 7 8 9 10 11 12 13 14 15 16 17 18 19 20 21 22 23 24 25 26 27 28 29 30 31 32 33 34 35 36 37 38 39 40 41 42 43 44 45 46 47 48 49 50

000
ASUS43 KEAX 011210
RWREAX

WEATHER ROUNDUP FOR EASTERN KANSAS AND NORTHWEST MISSOURI
NATIONAL WEATHER SERVICE KANSAS CITY/PLEASANT HILL MO
700 AM CDT SAT AUG 01 2015

KSZ040-057-103>105-MOZ028-029-037-043-011300-
...KANSAS CITY METROPOLITAN AREA...

CITY           SKY/WX    TMP DP  RH WIND       PRES   REMARKS
K.C. INTL      PTCLDY    70  68  93 SW6       30.05R
6HR MIN TEMP:  69; 6HR MAX TEMP:  79;

K.C. DOWNTOWN  CLEAR     75  70  84 SW3       30.04S
6HR MIN TEMP:  74; 6HR MAX TEMP:  79;

LEES SUMMIT    CLEAR     72  69  90 SW6       30.06S
6HR MIN TEMP:  72; 6HR MAX TEMP:  76;

OLATHE - IXD   CLEAR     71  70  96 S5        30.07S
6HR MIN TEMP:  70; 6HR MAX TEMP:  75;

OLATHE - OJC   CLEAR     70  69  97 SW3       30.06S
6HR MIN TEMP:  69; 6HR MAX TEMP:  74;

LAWRENCE       CLEAR     69  67  93 CALM      30.05S FOG

$$

MOZ001>008-011>017-020>025-030>033-038>040-044>046-053-054-011300-
...NORTHERN AND CENTRAL MISSOURI...

CITY           SKY/WX    TMP DP  RH WIND       PRES   REMARKS
ST. JOSEPH     CLEAR     71  69  93 CALM      30.04S
6HR MIN TEMP:  69; 6HR MAX TEMP:  74;

MOSBY          SUNNY     70  68  94 CALM      30.04S
WARRENSBURG    CLEAR     68  64  88 S3        30.05S
WHITEMAN AFB   CLEAR     70  66  88 CALM      30.05R
6HR MIN TEMP:  68; 6HR MAX TEMP:  73;

CLINTON        CLEAR     70  70 100 CALM      30.07R
SEDALIA        CLEAR     72  66  81 SW3       30.07R
6HR MIN TEMP:  69; 6HR MAX TEMP:  74;

WARSAW         NOT AVBL
CHILLICOTHE      N/A     70  68  93 CALM      30.06R
6HR MIN TEMP:  69; 6HR MAX TEMP:  77;

KIRKSVILLE     PTCLDY    69  65  86 S5        30.07R
6HR MIN TEMP:  68; 6HR MAX TEMP:  75; 6HR PCP: TRACE;


$$

MOZ041-047>049-056>058-063>065-088>090-097-011300-
...EASTERN AND SOUTHERN MISSOURI...

CITY           SKY/WX    TMP DP  RH WIND       PRES   REMARKS
ST. LOUIS INTL NOT AVBL
SPIRIT OF STL  CLEAR     69  68  96 CALM      30.05R
COLUMBIA       CLEAR     69  67  93 SW7       30.05S
JEFFERSON CITY CLEAR     68  66  93 CALM      30.05R
ROLLA          CLEAR     67  64  90 VRB3      30.07R
OSAGE BEACH    CLEAR     64  61  88 CALM      30.07S
SPRINGFIELD    CLEAR     65  61  87 S6        30.09R
BRANSON        CLEAR     66  59  77 CALM      30.11S
JOPLIN         CLEAR     63  59  87 CALM      30.09S
WEST PLAINS    CLEAR     67  61  81 CALM      30.11R

$$

IAZ060-094-KSZ022-034>040-054-083-096-NEZ052-066-093-011300-
...KANSAS...SOUTHEAST NEBRASKA AND IOWA...

CITY           SKY/WX    TMP DP  RH WIND       PRES   REMARKS
TOPEKA         CLEAR     71  68  90 CALM      30.05S
6HR MIN TEMP:  70; 6HR MAX TEMP:  75;

MANHATTAN      CLEAR     69  68  96 SW3       30.05S
EMPORIA        CLEAR     70  69  97 SW5       30.07S FOG
CHANUTE        CLEAR     66  66 100 CALM      30.08S FOG
WICHITA        PTCLDY    72  70  93 SE5       30.08S
OMAHA          MOCLDY    68  66  93 CALM      30.04R
LINCOLN        CLOUDY    69  64  84 N3        30.08R
FALLS CITY     MOCLDY    70  69  97 CALM      30.04R
LAMONI         CLEAR     70  66  87 CALM      30.05S
DES MOINES     PTCLDY    69  65  86 S5        30.03R

$$



USA.gov is the U.S. government's official web portal to all federal, state and local government web resources and services.